Location: Maccacari
(45.1333°N, 11.1333°E)
Time: 06:00:02
(UTC+00:00)

Tiros 1 despin weight - Pass Details

Date: 25 January 2021
Orbit: 593 x 642 km, 48.2° (Epoch: 06 March)

Event Time Altitude Azimuth Distance (km) Brightness Sun altitude
Rises 17:12:23 0° 288° (WNW) 2,865 ? -10.5°
Reaches altitude 10° 17:14:43 10° 290° (WNW) 1,953 ? -10.9°
Maximum altitude 17:19:11 76° 16° (NNE) 621 ? -11.7°
Enters shadow 17:22:46 15° 101° (ESE) 1,606 ? -12.3°
